Flag for Spain Weather past 2 weeks in Pamplona, Spain

63 °F

Thundershowers. Scattered clouds.

Feels Like: 63 °F
Forecast: 53 / 62 °F
Wind: 17 mph from North

Location: Pamplona / Noain

Current Time: Oct 6, 2015 at 5:05:26 PM

Latest Report: Oct 6, 2015 at 4:30 PM

Visibility: N/A

Pressure: 29.92 "Hg

Humidity: 77%

Dew point: 55 °F

Location of PamplonaLocation

Historic Weather in Pamplona — Graph


Pamplona temperature yesterday

Maximum temperature yesterday: 77 °F (at 2:30 PM)
Minimum temperature yesterday: 61 °F (at 12:00 AM)
Average temperature yesterday: 71 °F

Past Weeks' High & Low Weather Summary

High77 °F (Sep 21, 4:00 PM)100% (Sep 23, 6:30 AM)30.27 "Hg (Sep 23, 6:30 AM)
Low45 °F (Sep 28, 7:00 AM)28% (Sep 21, 4:00 PM)29.77 "Hg (Oct 6, 2:00 AM)
Average61 °F70%30.07 "Hg
* Reported Sep 21 4:00 PM — Oct 6 4:00 PM, Pamplona, Weather by CustomWeather, © 2015

Note: Actual official high and low records may vary slightly from our data, if they occured in-between our weather recording intervals... More about our weather records


Pamplona weather history for previous 24 hours

Time TempWeatherWind HumidityBarometerVisibility
4:00 PM
Tue, Oct 6
70 °FPassing clouds.8 mph57%29.89 "HgN/A
3:30 PM70 °FScattered clouds.8 mph60%29.89 "HgN/A
3:00 PM68 °FLight rain. Scattered clouds.8 mph64%29.89 "HgN/A
2:30 PM70 °FPassing clouds.13 mph57%29.89 "HgN/A
2:00 PM70 °FPassing clouds.8 mph60%29.89 "HgN/A
1:30 PM64 °FLight rain. Scattered clouds.9 mph78%29.92 "HgN/A
1:00 PM68 °FPassing clouds.6 mph56%29.89 "HgN/A
12:30 PM68 °FPassing clouds.9 mph53%29.89 "HgN/A
12:00 PM68 °FPassing clouds.12 mph53%29.89 "HgN/A
11:30 AM70 °FPassing clouds.6 mph46%29.89 "HgN/A
11:00 AM66 °FPassing clouds.5 mph60%29.89 "HgN/A
10:30 AM66 °FPassing clouds.6 mph56%29.89 "HgN/A
10:00 AM64 °FPassing clouds.8 mph64%29.86 "HgN/A
9:30 AM64 °FPassing clouds.9 mph60%29.86 "HgN/A
9:00 AM63 °FClear.3 mph73%29.86 "Hg10 mi
8:30 AM63 °FClear.7 mph68%29.83 "Hg10 mi
8:00 AM63 °FPassing clouds.3 mph73%29.83 "HgN/A
7:30 AM63 °FPassing clouds.6 mph73%29.83 "HgN/A
7:00 AM64 °FClear.9 mph68%29.83 "Hg10 mi
6:30 AM64 °FPartly cloudy.10 mph68%29.83 "HgN/A
6:00 AM64 °FPassing clouds.8 mph68%29.80 "HgN/A
5:30 AM66 °FClear.8 mph64%29.80 "Hg10 mi
5:00 AM66 °FPassing clouds.14 mph64%29.80 "HgN/A
4:30 AM66 °FPassing clouds.12 mph64%29.80 "HgN/A
4:00 AM66 °FPassing clouds.14 mph64%29.80 "HgN/A
3:30 AM68 °FPassing clouds.18 mph60%29.77 "HgN/A
3:00 AM68 °FPassing clouds.18 mph60%29.77 "HgN/A
2:30 AM68 °FPassing clouds.21 mph60%29.80 "HgN/A
2:00 AM70 °FPassing clouds.18 mph57%29.77 "HgN/A
1:30 AM70 °FPassing clouds.20 mph53%29.80 "HgN/A
1:00 AM70 °FPassing clouds.20 mph53%29.80 "HgN/A
12:30 AM72 °FPassing clouds.20 mph50%29.80 "HgN/A
11:30 PM
Mon, Oct 5
70 °FPassing clouds.18 mph53%29.83 "HgN/A
11:00 PM70 °FPassing clouds.20 mph50%29.83 "HgN/A
10:30 PM70 °FPassing clouds.15 mph53%29.83 "HgN/A
10:00 PM70 °FPassing clouds.15 mph53%29.86 "HgN/A
9:30 PM72 °FPassing clouds.21 mph50%29.86 "HgN/A
9:00 PM72 °FPassing clouds.20 mph53%29.86 "HgN/A
8:30 PM72 °FPassing clouds.16 mph53%29.86 "HgN/A
8:00 PM73 °FPassing clouds.17 mph50%29.83 "HgN/A
7:30 PM73 °FPassing clouds.14 mph50%29.86 "HgN/A
7:00 PM75 °FPassing clouds.14 mph47%29.86 "HgN/A
6:30 PM75 °FPassing clouds.14 mph54%29.86 "HgN/A
6:00 PM73 °FPassing clouds.14 mph57%29.86 "HgN/A
5:30 PM75 °FPassing clouds.22 mph54%29.86 "HgN/A
5:00 PM77 °FPassing clouds.14 mph54%29.89 "HgN/A
Weather by CustomWeather, © 2015

See weather overviewHow to use our weather pages